Back to catalog

TITAN 3 R/B(2)

AliveHEO
NORAD 20669·ROCKET BODY·🇺🇸 United States

Launched Jun 23, 1990 from Cape Canaveral Space Force Station

Loading…

Next Passes (next 24 hours)

TLE

FreshSource: Space-Track

Epoch: Sep 14, 2026, 15:05 UTC

1 20669U 90056C   26257.62889102  .00000915  00000-0  44442-3 0  9997
2 20669  24.2951  80.9842 7006299 356.9357   0.3647  2.61568972312934

Track TITAN 3 R/B(2) in real time with AllMySat

Download on the App Store